Погода в Волжском

Россия / Волгоградская область     48°47′10″N   44°45′06″E
темп.,
°C
ветер,
м/с
пор.,
м/с
влажн.,
%
обл.,
%
осадки,
мм/ч
давл.,
гПа
погр.,
м
21 апреля, ср
ср2100:00+13ююв7167932 0.0 1012716
03:00+13ююв71283100 0.0 1013573
06:00+12ю61086100 0.0 1014553
09:00+13юз6967100 0.1 1016831
12:00+17юз675188 0.0 10171501
15:00+17зюз564992 0.0 10171635
18:00+15зюз5756100 0.0 1018788
21:00+13юз35608 0.0 1020181
22 апреля, чт
чт2200:00+12юз256716 0.0 1020127
03:00+11з366693 0.0 1021152
06:00+11з246385 0.0 1022123
09:00+15з234656 0.0 1023644
12:00+18юз23366 0.0 10231721
15:00+19юз333425 0.0 10222215
18:00+18зюз2238100 0.0 10221034
21:00+16с3446100 0.0 1023337
23 апреля, пт
пт2300:00+14с235341 0.0 1022110
03:00+13всв2358100 0.0 1021101
06:00+13св2358100 0.0 1021103
09:00+15в2253100 0.0 1022677
12:00+18ссв1144100 0.0 10201327
15:00+18св434487 0.6 10191505
18:00+16зсз1251100 0.2 1019612
21:00+15ссв115839 0.6 1019237
24 апреля, сб
сб2400:00+13з11645 0.0 101718
03:00+12з247099 0.0 1017109
06:00+12юз3869100 0.0 1017262
09:00+15зюз574928 0.0 1016777
12:00+18зюз684277 0.1 10152275
15:00+18юз794395 0.1 10142153
18:00+15з795888 0.1 10151161
21:00+12з57615 0.1 1017827
25 апреля, вс
вс2500:00+10зюз48630 0.0 1017387
03:00+10зюз510668 0.0 1017534
06:00+9з595721 0.0 1019667
09:00+11зюз573890 0.0 10191251
12:00+13зюз563568 0.0 10191663
15:00+15зюз443299 0.0 10182088
18:00+14юз3436100 0.0 10181181
21:00+13з3443100 0.0 1019551